[[{"header":{"parameterUnit":"m.s-1","parameterCategory":1,"la1":30.2991,"la2":30.254,"lo1":-89.0895,"lo2":-89.0444,"dy":0.0017,"dx":0.0017,"nx":28,"ny":28,"refTime":"2025-03-26T03:00:00:Z","depth":0,"parameterNumber":2,"parameterNumberName":"U-component_of_WINDS"},"data":[0,0,0,0,0,0,0,0,0,0,0,0,0,0,0,0,0,0,0,0,0,0,0,0,0,0,0,0,0,0,0,0,0,0,0,0,0,0,0,0,0,0,0,0,0,0,0,0,0,0,0,0,0,0,0,0,0,0,1.9102,1.9103,0,1.9189,1.919,1.9191,1.9179,1.9178,1.9176,1.9175,1.9268,1.9271,1.9275,0,0,0,0,0,0,0,0,0,0,0,0,0,1.8931,1.8934,1.9102,1.9103,1.9105,1.9189,1.919,1.9191,1.9179,1.9178,1.9176,1.9174,1.9266,1.9271,1.9275,0,0,0,0,0,0,0,0,0,0,0,0,0,1.901,1.8935,1.9102,1.9109,1.911,1.9188,1.919,1.9191,1.918,1.9178,1.9175,1.9173,1.9265,1.927,1.9276,1.9354,0,0,1.9293,1.9296,0,0,0,0,0,0,0,0,1.9006,1.9017,1.9107,1.9108,1.911,1.9171,1.9163,1.9246,1.918,1.9153,1.9175,1.9172,1.9237,1.9245,1.9266,1.9359,1.9363,1.9294,1.9297,1.93,1.9301,0,0,0,0,0,0,0,1.9,1.9013,1.9137,1.9108,1.911,1.9109,1.9117,1.9179,1.9207,1.9156,1.9155,1.9165,1.9238,1.9261,1.9268,1.9364,1.9294,1.9299,1.9302,1.9305,1.9525,1.9528,0,0,0,0,0,0,1.8993,1.9008,1.9134,1.9139,1.9051,1.9113,1.9123,1.9154,1.9206,1.9212,1.9167,1.9164,1.9252,1.9262,1.9272,1.9367,1.93,1.9305,1.9308,1.9523,1.9526,1.9529,0,0,0,0,0,0,1.8989,1.9004,1.913,1.9074,1.909,1.9119,1.9153,1.9156,1.9179,1.9214,1.922,1.9185,1.9251,1.9264,1.9334,1.937,1.9308,1.9313,1.952,1.9524,1.9527,1.9558,0,0,0,0,0,0,1.8984,1.9003,1.9032,1.9074,1.9093,1.919,1.9155,1.916,1.9189,1.9186,1.9233,1.9238,1.925,1.9325,1.9339,1.9377,1.9317,1.9517,1.9522,1.9526,1.9554,1.9562,1.957,0,0,0,0,0,1.8978,1.9038,1.9033,1.9049,1.913,1.9192,1.9203,1.9214,1.9192,1.9222,1.9244,1.9237,1.9364,1.9332,1.9348,1.9388,1.9515,1.9521,1.9526,1.9551,1.9561,1.9569,0,0,0,0,0,0,1.9001,1.9044,1.9039,1.9115,1.915,1.919,1.9228,1.9224,1.9267,1.9263,1.9277,1.9287,1.9358,1.938,1.9345,1.9467,1.9436,1.9445,1.945,1.946,1.9467,1.9461,1.9322,0,0,0,0,0,1.9014,1.906,1.9096,1.9159,1.9177,1.9199,1.9227,1.9232,1.927,1.9285,1.9313,1.935,1.9399,1.943,1.9477,1.9557,1.9567,1.9592,1.96,1.9606,1.9614,1.9658,1.967,1.9547,1.9547,1.9547,0,0,1.9044,1.9073,1.9101,1.9164,1.9192,1.924,1.9212,1.9265,1.9301,1.9294,1.9361,1.9383,1.9426,1.9501,1.9536,1.9522,1.965,1.9613,1.9618,1.9622,1.9665,1.9677,1.9687,1.955,1.955,1.9549,0,0,1.9121,1.9147,1.9203,1.9231,1.9273,1.9287,1.93,1.9341,1.9355,1.9423,1.9418,1.9462,1.9545,1.9576,1.9602,1.969,1.9686,1.9705,1.9746,1.9789,1.9799,1.9808,1.984,1.9851,1.9713,1.9713,1.9713,0,1.9152,1.9224,1.9232,1.9285,1.9313,1.9307,1.9364,1.9391,1.9446,1.9467,1.9449,1.9553,1.9582,1.9664,1.9685,1.9707,1.9723,1.97,1.9797,1.9805,1.9814,1.9844,1.9856,1.9715,1.9715,1.9715,1.9714,0,1.926,1.931,1.935,1.9401,1.9434,1.9489,1.9507,1.9539,1.9541,1.9558,1.9627,1.9661,1.9714,1.9734,1.9738,1.9817,1.9807,1.9793,1.9763,1.9827,1.9856,1.9868,1.9718,1.9717,1.9717,1.9716,0,0,1.9356,1.941,1.9425,1.9448,1.9494,1.9533,1.9587,1.9638,1.9665,1.9704,1.975,1.982,1.9807,1.9837,1.9844,1.9882,1.995,1.9863,1.9865,1.9879,2.004,2.0051,2.0064,1.9946,1.9949,1.9951,2.0037,0,1.9438,1.9532,1.9542,1.9627,1.9673,1.9668,1.9715,1.9749,1.9766,1.9808,1.9828,1.9877,1.9856,1.9874,1.9911,1.9934,1.9983,1.9928,1.9991,1.9993,1.9981,2.0079,2.009,2.017,2.0048,2.005,2.0051,0,1.9547,1.9586,1.9676,1.9714,1.9734,1.9776,1.9823,1.9863,1.9901,1.9911,1.9944,1.9946,2.0003,1.997,2.005,2.0012,2.0039,2.0054,2.0057,2.0064,2.0027,2.0089,2.0196,2.0208,2.0069,2.0068,2.0067,0,1.9608,1.9684,1.9747,1.9767,1.9813,1.9843,1.9864,1.99,1.9929,1.9971,1.999,2.0038,2.0064,2.0102,2.0117,2.0092,2.0196,2.0164,2.0207,2.0207,2.023,2.0228,2.0343,2.0246,2.0246,2.0246,2.0245,0,1.9699,1.9754,1.9775,1.9814,1.9875,1.9886,1.9947,1.9967,1.9998,2.0042,2.004,2.0082,2.0099,2.0143,2.0155,2.022,2.0232,2.0242,2.0245,2.0242,2.0241,2.026,2.0255,2.0249,2.0248,2.0248,2.0247,0,1.9778,1.9793,1.9862,1.99,1.991,1.9954,1.9987,2.0025,2.0041,2.0096,2.011,2.0136,2.0188,2.0206,2.027,2.0278,2.0353,2.0351,2.0339,2.034,2.0381,2.0377,2.0513,2.0531,2.0422,2.0423,2.0424,0,1.9835,1.9877,1.9918,1.9946,1.9968,2.0014,2.0043,2.0055,2.0086,2.0132,2.0165,2.0216,2.0258,2.0342,2.0367,2.0416,2.0415,2.0459,2.0423,2.0419,2.0416,2.0413,2.0418,2.0466,2.0467,2.0468,2.0469,0,1.9935,1.994,1.9982,2.0027,2.0062,2.0098,2.0133,2.0157,2.0174,2.0209,2.0261,2.0294,2.0358,2.0409,2.0458,2.0482,2.0479,2.048,2.0492,2.0491,2.0482,2.0488,2.0358,2.0477,2.0476,2.0476,2.0475,2.0475,2.0005,2.0042,2.0076,2.0123,2.015,2.0183,2.022,2.024,2.0284,2.0335,2.034,2.0397,2.0434,2.05,2.0525,2.057,2.0558,2.0576,2.0581,2.0585,2.0588,2.0475,2.0579,2.0579,2.0579,2.0579,2.0579,0,2.0105,2.0127,2.0169,2.0218,2.0255,2.0247,2.0285,2.0317,2.0366,2.04,2.044,2.05,2.055,2.0579,2.0628,2.0659,2.0659,2.0672,2.067,2.0675,2.0596,2.058,2.0671,2.0671,2.0671,2.0671,2.0671,2.0671,2.0162,2.0223,2.0233,2.0309,2.033,2.0384,2.0407,2.0437,2.0464,2.0531,2.0571,2.0589,2.0621,2.0673,2.0718,2.0726,2.0744,2.0758,2.0765,2.069,2.0681,2.0672,2.0657,2.0762,2.0762,2.084,2.0841,2.0841]},{"header":{"parameterUnit":"m.s-1","parameterCategory":1,"la1":30.2991,"la2":30.254,"lo1":-89.0895,"lo2":-89.0444,"dy":0.0017,"dx":0.0017,"nx":28,"ny":28,"refTime":"2025-03-26T03:00:00:Z","depth":0,"parameterNumber":3,"parameterNumberName":"V-component_of_WINDS"},"data":[0,0,0,0,0,0,0,0,0,0,0,0,0,0,0,0,0,0,0,0,0,0,0,0,0,0,0,0,0,0,0,0,0,0,0,0,0,0,0,0,0,0,0,0,0,0,0,0,0,0,0,0,0,0,0,0,0,0,0.7029,0.7029,0,0.7014,0.7014,0.7014,0.6981,0.698,0.6979,0.6979,0.6966,0.6966,0.6966,0,0,0,0,0,0,0,0,0,0,0,0,0,0.7031,0.7031,0.7029,0.7029,0.7029,0.7014,0.7014,0.7014,0.6981,0.698,0.6979,0.6978,0.6966,0.6966,0.6966,0,0,0,0,0,0,0,0,0,0,0,0,0,0.7024,0.7031,0.7029,0.701,0.7009,0.7014,0.7014,0.7014,0.6981,0.698,0.6979,0.6978,0.6966,0.6966,0.6966,0.699,0,0,0.6968,0.6968,0,0,0,0,0,0,0,0,0.7025,0.7024,0.7013,0.7012,0.701,0.6998,0.701,0.7006,0.6981,0.6992,0.6979,0.6977,0.6978,0.6977,0.6977,0.6989,0.6989,0.6968,0.6968,0.6968,0.6968,0,0,0,0,0,0,0,0.7025,0.7025,0.7023,0.7013,0.7011,0.7003,0.7001,0.7009,0.6991,0.6991,0.6988,0.6987,0.6976,0.6976,0.6976,0.6988,0.6968,0.6968,0.6969,0.6969,0.7019,0.702,0,0,0,0,0,0,0.7028,0.7025,0.7024,0.7023,0.7015,0.7004,0.7002,0.7003,0.699,0.6987,0.6988,0.6985,0.6976,0.6975,0.6975,0.7002,0.6968,0.6969,0.6969,0.7018,0.702,0.7021,0,0,0,0,0,0,0.7028,0.7028,0.7024,0.7023,0.7022,0.7005,0.7007,0.7003,0.7003,0.6988,0.6985,0.6991,0.6975,0.6975,0.6986,0.7001,0.6969,0.6969,0.7017,0.7019,0.702,0.7055,0,0,0,0,0,0,0.7028,0.7029,0.7037,0.7024,0.7022,0.7035,0.7008,0.7004,0.7003,0.7,0.699,0.6987,0.6974,0.6986,0.6987,0.7001,0.697,0.7016,0.7018,0.702,0.7052,0.7057,0.7062,0,0,0,0,0,0.7029,0.7048,0.7037,0.7037,0.7032,0.7036,0.7035,0.7019,0.7005,0.7013,0.7004,0.6988,0.6999,0.6987,0.6988,0.7003,0.7015,0.7017,0.702,0.705,0.7056,0.7062,0,0,0,0,0,0,0.7064,0.7046,0.7034,0.7049,0.7044,0.703,0.704,0.7026,0.7026,0.7023,0.7003,0.7001,0.7015,0.701,0.6997,0.7024,0.7004,0.7007,0.7027,0.7033,0.7038,0.7039,0.697,0,0,0,0,0,0.7073,0.7077,0.7061,0.7076,0.7074,0.7058,0.7059,0.7046,0.7041,0.7039,0.703,0.7026,0.7028,0.703,0.7032,0.7051,0.7049,0.7062,0.7066,0.707,0.7073,0.7083,0.7088,0.7029,0.7029,0.7029,0,0,0.7093,0.7083,0.7087,0.7083,0.7078,0.7082,0.7056,0.7062,0.7066,0.704,0.705,0.7043,0.7037,0.7053,0.7059,0.7049,0.7089,0.7073,0.7077,0.7077,0.7086,0.7092,0.7097,0.703,0.703,0.703,0,0,0.7131,0.7124,0.7136,0.7131,0.7123,0.7112,0.7114,0.7102,0.7097,0.7106,0.7087,0.7091,0.7096,0.7092,0.7091,0.7128,0.7113,0.7129,0.7154,0.7163,0.7168,0.7172,0.7185,0.719,0.7131,0.7131,0.7132,0,0.7157,0.7163,0.7144,0.7151,0.715,0.7126,0.7138,0.7134,0.7127,0.7127,0.7115,0.712,0.7115,0.7129,0.7138,0.7138,0.7141,0.713,0.7169,0.7173,0.7176,0.7189,0.7194,0.7133,0.7133,0.7133,0.7133,0,0.7195,0.7199,0.7209,0.7202,0.7202,0.7212,0.7195,0.7198,0.7186,0.7176,0.7186,0.7178,0.7178,0.718,0.7169,0.7193,0.7187,0.7172,0.7152,0.7184,0.7195,0.72,0.7136,0.7136,0.7135,0.7134,0,0,0.7255,0.7237,0.7241,0.7238,0.7227,0.723,0.7239,0.7237,0.724,0.7236,0.7243,0.7247,0.7234,0.7232,0.722,0.7229,0.7258,0.7213,0.7213,0.7222,0.7284,0.7295,0.7301,0.7248,0.7249,0.725,0.7285,0,0.7291,0.7304,0.7287,0.7304,0.7308,0.7285,0.7292,0.7287,0.7278,0.728,0.7271,0.7274,0.7256,0.7255,0.7262,0.7253,0.7271,0.725,0.7255,0.7256,0.7257,0.7307,0.7319,0.7352,0.7289,0.729,0.729,0,0.7334,0.7331,0.7348,0.7336,0.7337,0.7344,0.7341,0.7344,0.7337,0.733,0.7329,0.7314,0.7322,0.7302,0.7313,0.73,0.7301,0.7296,0.7297,0.7297,0.7275,0.7308,0.7362,0.7368,0.7297,0.7297,0.7296,0,0.7376,0.7377,0.7387,0.7385,0.7371,0.7376,0.7371,0.7363,0.7363,0.7361,0.7361,0.736,0.736,0.736,0.7345,0.7332,0.7359,0.7337,0.7353,0.7354,0.736,0.736,0.7415,0.7361,0.7361,0.7361,0.7361,0,0.7418,0.7429,0.7406,0.7412,0.7424,0.7405,0.7418,0.741,0.7404,0.7409,0.7389,0.7394,0.7374,0.7378,0.7366,0.7377,0.7377,0.7372,0.7369,0.7374,0.7375,0.7375,0.7372,0.7362,0.7362,0.7361,0.7361,0,0.7467,0.7452,0.7461,0.7447,0.7444,0.7453,0.7441,0.7447,0.7437,0.7443,0.7444,0.7428,0.7431,0.7416,0.7416,0.7409,0.7425,0.7418,0.7427,0.7425,0.7442,0.7441,0.75,0.7506,0.7448,0.7448,0.7449,0,0.7495,0.7503,0.7489,0.7491,0.7486,0.7489,0.7488,0.747,0.7471,0.7464,0.747,0.7471,0.7471,0.7476,0.7465,0.7466,0.7458,0.7479,0.7458,0.7463,0.7459,0.7459,0.7459,0.7483,0.7484,0.7485,0.7485,0,0.7545,0.7537,0.7537,0.7535,0.7535,0.7532,0.7528,0.7531,0.7511,0.7513,0.7515,0.7515,0.7515,0.7516,0.7514,0.7509,0.7494,0.7492,0.7495,0.7501,0.7505,0.7503,0.7439,0.749,0.749,0.749,0.7489,0.7489,0.7584,0.759,0.7582,0.7582,0.7577,0.7574,0.7579,0.7569,0.757,0.7568,0.7557,0.7561,0.7554,0.755,0.7546,0.755,0.754,0.7545,0.7547,0.7548,0.7551,0.7505,0.7549,0.7549,0.7549,0.7549,0.7549,0,0.7634,0.7627,0.7628,0.7623,0.7623,0.7608,0.7603,0.7605,0.7609,0.7603,0.7603,0.7606,0.7607,0.7596,0.7595,0.76,0.7593,0.7601,0.76,0.7599,0.756,0.7557,0.7606,0.7606,0.7606,0.7606,0.7606,0.7606,0.766,0.7669,0.766,0.7667,0.766,0.7663,0.7662,0.7659,0.7654,0.7658,0.7658,0.7651,0.7643,0.7642,0.7642,0.7639,0.764,0.765,0.7644,0.7608,0.7602,0.7597,0.7594,0.765,0.765,0.7683,0.7684,0.7684]}]]